BEL8CL EDDH-EBBR

Flight info

Callsign BEL8CL
Flight time 0h 50m
Altitude 32000
Route WSN5G WSN N125 ITMIZ DCT SUSET/N0416F310 Z310 WOODY
Aircraft A320/M-SDE3FGHIRWY/LB1

Departure

Time 2026-04-25 17:30
Airport Hamburg Helmut Schmidt Airport (EDDH)

Arrival

Time 2026-04-25 18:20
Airport Brussels Airport (EBBR)
Time Latitude Longitude Altitude Speed Heading
2026-04-25 17:01 53.63374 10.00337 51 ft 0 kts 86°
2026-04-25 17:22 53.63373 10.00313 48 ft 4 kts 86°
2026-04-25 17:22 53.63370 10.00253 45 ft 4 kts 93°
2026-04-25 17:22 53.63374 10.00228 47 ft 3 kts 175°
2026-04-25 17:23 53.63395 10.00226 47 ft 3 kts 176°
2026-04-25 17:23 53.63397 10.00226 51 ft 0 kts 176°
2026-04-25 17:26 53.63366 10.00229 51 ft 10 kts 176°
2026-04-25 17:26 53.63302 10.00236 51 ft 11 kts 176°
2026-04-25 17:26 53.63215 10.00246 51 ft 12 kts 176°
2026-04-25 17:27 53.63134 10.00255 48 ft 11 kts 176°
2026-04-25 17:27 53.63063 10.00253 51 ft 9 kts 200°
2026-04-25 17:27 53.63010 10.00199 51 ft 9 kts 213°
2026-04-25 17:27 53.62978 10.00163 51 ft 8 kts 213°
2026-04-25 17:28 53.62910 10.00089 50 ft 9 kts 213°
2026-04-25 17:28 53.62861 10.00015 50 ft 10 kts 236°
2026-04-25 17:28 53.62829 9.99902 50 ft 12 kts 244°
2026-04-25 17:28 53.62819 9.99796 49 ft 10 kts 303°
2026-04-25 17:29 53.62883 9.99730 49 ft 14 kts 333°
2026-04-25 17:29 53.63159 9.99488 50 ft 79 kts 333°
2026-04-25 17:29 53.63827 9.98908 49 ft 135 kts 333°
2026-04-25 17:29 53.64772 9.98170 382 ft 153 kts 331°
2026-04-25 17:30 53.65729 9.97397 1093 ft 152 kts 330°
2026-04-25 17:30 53.66664 9.96587 1870 ft 150 kts 328°
2026-04-25 17:30 53.67586 9.95781 2583 ft 148 kts 328°
2026-04-25 17:30 53.68482 9.94996 3263 ft 147 kts 329°
2026-04-25 17:31 53.69438 9.94157 3646 ft 165 kts 329°
2026-04-25 17:31 53.70523 9.93198 3962 ft 185 kts 327°
2026-04-25 17:31 53.71403 9.91644 4689 ft 189 kts 297°
2026-04-25 17:31 53.71537 9.89271 4961 ft 229 kts 266°
2026-04-25 17:32 53.71101 9.86536 5238 ft 250 kts 259°
2026-04-25 17:32 53.70526 9.83760 6223 ft 250 kts 258°
2026-04-25 17:32 53.69925 9.80991 7159 ft 251 kts 258°
2026-04-25 17:32 53.69330 9.78218 8035 ft 252 kts 259°
2026-04-25 17:33 53.68752 9.75456 8920 ft 253 kts 260°
2026-04-25 17:33 53.68175 9.72629 9825 ft 255 kts 260°
2026-04-25 17:33 53.67606 9.69791 10485 ft 264 kts 261°
2026-04-25 17:33 53.67007 9.66722 10717 ft 287 kts 260°
2026-04-25 17:34 53.66370 9.63453 11219 ft 298 kts 260°
2026-04-25 17:34 53.65708 9.60105 11922 ft 303 kts 259°
2026-04-25 17:34 53.64787 9.56809 12645 ft 319 kts 247°
2026-04-25 17:34 53.63483 9.53719 13357 ft 326 kts 243°
2026-04-25 17:35 53.62142 9.50613 14061 ft 330 kts 243°
2026-04-25 17:35 53.60780 9.47455 14637 ft 334 kts 243°
2026-04-25 17:35 53.59427 9.44311 15253 ft 337 kts 243°
2026-04-25 17:35 53.58041 9.41091 15881 ft 341 kts 243°
2026-04-25 17:36 53.56638 9.37839 16501 ft 344 kts 243°
2026-04-25 17:36 53.55219 9.34551 17091 ft 348 kts 243°
2026-04-25 17:36 53.53787 9.31229 17670 ft 353 kts 243°
2026-04-25 17:36 53.52336 9.27871 18264 ft 357 kts 243°
2026-04-25 17:37 53.50870 9.24480 18809 ft 360 kts 243°
2026-04-25 17:37 53.49390 9.21067 19324 ft 363 kts 242°
2026-04-25 17:37 53.47894 9.17619 19860 ft 366 kts 242°
2026-04-25 17:37 53.46404 9.14188 20380 ft 370 kts 242°
2026-04-25 17:38 53.44874 9.10672 20912 ft 373 kts 242°
2026-04-25 17:38 53.43856 9.08335 21270 ft 375 kts 242°
2026-04-25 17:38 53.41786 9.03594 21975 ft 379 kts 242°
2026-04-25 17:38 53.40214 8.99995 22489 ft 382 kts 242°
2026-04-25 17:39 53.38657 8.96436 22950 ft 386 kts 241°
2026-04-25 17:39 53.37050 8.92775 23446 ft 390 kts 241°
2026-04-25 17:39 53.35462 8.89078 23891 ft 390 kts 245°
2026-04-25 17:39 53.34203 8.85087 24307 ft 384 kts 255°
2026-04-25 17:40 53.33270 8.80898 24735 ft 384 kts 257°
2026-04-25 17:40 53.32360 8.76742 25145 ft 386 kts 256°
2026-04-25 17:40 53.31424 8.72495 25500 ft 389 kts 256°
2026-04-25 17:40 53.30478 8.68227 25867 ft 392 kts 256°
2026-04-25 17:41 53.29526 8.63947 26248 ft 394 kts 256°
2026-04-25 17:41 53.28573 8.59625 26629 ft 396 kts 256°
2026-04-25 17:41 53.27622 8.55297 27003 ft 398 kts 256°
2026-04-25 17:41 53.26668 8.50945 27371 ft 400 kts 256°
2026-04-25 17:42 53.25751 8.46612 27736 ft 401 kts 257°
2026-04-25 17:42 53.24886 8.42172 28099 ft 402 kts 258°
2026-04-25 17:42 53.24058 8.37688 28461 ft 403 kts 259°
2026-04-25 17:42 53.23243 8.33180 28805 ft 405 kts 259°
2026-04-25 17:43 53.22423 8.28670 29146 ft 407 kts 258°
2026-04-25 17:43 53.21595 8.24179 29473 ft 409 kts 258°
2026-04-25 17:43 53.20740 8.19627 29775 ft 411 kts 257°
2026-04-25 17:43 53.19869 8.15052 30065 ft 414 kts 257°
2026-04-25 17:44 53.19000 8.10525 30340 ft 416 kts 257°
2026-04-25 17:44 53.18120 8.05919 30580 ft 418 kts 257°
2026-04-25 17:44 53.17242 8.01280 30812 ft 420 kts 258°
2026-04-25 17:44 53.16359 7.96607 31037 ft 422 kts 258°
2026-04-25 17:45 53.15477 7.91925 31260 ft 424 kts 258°
2026-04-25 17:45 53.15189 7.90402 31327 ft 425 kts 258°
2026-04-25 17:45 53.13704 7.82555 31742 ft 426 kts 257°
2026-04-25 17:45 53.12806 7.77855 32042 ft 426 kts 257°
2026-04-25 17:46 53.11903 7.73152 32144 ft 423 kts 257°
2026-04-25 17:46 53.11009 7.68568 32161 ft 410 kts 256°
2026-04-25 17:46 53.09848 7.64229 32141 ft 412 kts 245°
2026-04-25 17:46 53.08370 7.60177 32159 ft 413 kts 244°
2026-04-25 17:47 53.05370 7.52052 32164 ft 412 kts 244°
2026-04-25 17:47 53.02367 7.43904 32166 ft 412 kts 244°
2026-04-25 17:48 52.97871 7.31792 32166 ft 411 kts 243°
2026-04-25 17:49 52.94870 7.23736 32167 ft 411 kts 243°
2026-04-25 17:49 52.91839 7.15642 32168 ft 411 kts 243°
2026-04-25 17:50 52.89320 7.08932 32160 ft 411 kts 243°
2026-04-25 17:50 52.85795 6.99559 32157 ft 411 kts 242°
2026-04-25 17:51 52.82780 6.91566 32159 ft 411 kts 242°
2026-04-25 17:51 52.79752 6.83573 32160 ft 411 kts 242°
2026-04-25 17:52 52.76702 6.75550 32161 ft 410 kts 242°
2026-04-25 17:52 52.73681 6.67629 32163 ft 410 kts 242°
2026-04-25 17:53 52.70626 6.59652 32171 ft 410 kts 242°
2026-04-25 17:53 52.67594 6.51742 32155 ft 410 kts 242°
2026-04-25 17:54 52.64543 6.43795 32162 ft 409 kts 242°
2026-04-25 17:54 52.61481 6.35844 32176 ft 410 kts 242°
2026-04-25 17:55 52.58435 6.27985 32155 ft 410 kts 242°
2026-04-25 17:55 52.55357 6.20080 32162 ft 410 kts 242°
2026-04-25 17:56 52.52275 6.12178 32172 ft 410 kts 242°
2026-04-25 17:56 52.49210 6.04327 32172 ft 410 kts 242°
2026-04-25 17:57 52.46116 5.96440 32162 ft 410 kts 241°
2026-04-25 17:57 52.43023 5.88584 32167 ft 410 kts 241°
2026-04-25 17:58 52.39940 5.80767 32170 ft 410 kts 241°
2026-04-25 17:58 52.36830 5.72904 32164 ft 410 kts 240°
2026-04-25 17:59 52.33719 5.65067 32170 ft 410 kts 240°
2026-04-25 17:59 52.30626 5.57280 32175 ft 410 kts 240°
2026-04-25 18:00 52.28029 5.50779 32176 ft 411 kts 240°
2026-04-25 18:00 52.24363 5.41649 32168 ft 410 kts 240°
2026-04-25 18:01 52.21282 5.33988 31838 ft 398 kts 240°
2026-04-25 18:01 52.19772 5.30241 31429 ft 393 kts 240°
2026-04-25 18:01 52.18273 5.26520 30994 ft 389 kts 240°
2026-04-25 18:01 52.16791 5.22855 30551 ft 385 kts 240°
2026-04-25 18:02 52.15319 5.19227 30072 ft 384 kts 238°
2026-04-25 18:02 52.13619 5.15874 29566 ft 384 kts 227°
2026-04-25 18:02 52.11593 5.13105 29082 ft 385 kts 217°
2026-04-25 18:02 52.09247 5.10950 28608 ft 387 kts 207°
2026-04-25 18:03 52.06732 5.09365 28149 ft 386 kts 204°
2026-04-25 18:03 52.04226 5.07828 27673 ft 383 kts 204°
2026-04-25 18:03 52.01763 5.06306 27234 ft 380 kts 204°
2026-04-25 18:03 51.99298 5.04777 26792 ft 378 kts 204°
2026-04-25 18:04 51.96847 5.03255 26347 ft 375 kts 204°
2026-04-25 18:04 51.94432 5.01757 25916 ft 373 kts 204°
2026-04-25 18:04 51.92014 5.00258 25505 ft 369 kts 205°
2026-04-25 18:04 51.89624 4.98782 25099 ft 366 kts 205°
2026-04-25 18:05 51.88046 4.97809 24818 ft 365 kts 205°
2026-04-25 18:05 51.85674 4.96346 24396 ft 362 kts 205°
2026-04-25 18:05 51.83325 4.94899 23983 ft 360 kts 205°
2026-04-25 18:05 51.80228 4.92995 23372 ft 357 kts 205°
2026-04-25 18:06 51.78659 4.92035 23044 ft 356 kts 205°
2026-04-25 18:06 51.76375 4.90639 22603 ft 354 kts 205°
2026-04-25 18:06 51.74060 4.89222 22158 ft 352 kts 205°
2026-04-25 18:06 51.71804 4.87841 21727 ft 350 kts 205°
2026-04-25 18:07 51.69541 4.86460 21197 ft 346 kts 204°
2026-04-25 18:07 51.67278 4.85080 20626 ft 343 kts 204°
2026-04-25 18:07 51.64989 4.84146 20079 ft 345 kts 188°
2026-04-25 18:07 51.62583 4.83916 19511 ft 344 kts 186°
2026-04-25 18:08 51.60193 4.83730 18951 ft 341 kts 185°
2026-04-25 18:08 51.57828 4.83560 18269 ft 339 kts 185°
2026-04-25 18:08 51.55475 4.83394 17552 ft 336 kts 185°
2026-04-25 18:08 51.53175 4.83231 16872 ft 333 kts 185°
2026-04-25 18:09 51.50868 4.83064 16211 ft 330 kts 185°
2026-04-25 18:09 51.48575 4.82896 15573 ft 327 kts 185°
2026-04-25 18:09 51.46312 4.82728 14954 ft 324 kts 185°
2026-04-25 18:09 51.44795 4.82615 14551 ft 322 kts 185°
2026-04-25 18:10 51.41845 4.82396 13722 ft 318 kts 185°
2026-04-25 18:10 51.39629 4.82230 13052 ft 316 kts 185°
2026-04-25 18:10 51.37466 4.82067 12403 ft 313 kts 185°
2026-04-25 18:10 51.35302 4.81905 11797 ft 309 kts 185°
2026-04-25 18:11 51.33173 4.81746 11364 ft 299 kts 185°
2026-04-25 18:11 51.31158 4.81598 11218 ft 280 kts 185°
2026-04-25 18:11 51.29249 4.81457 10871 ft 271 kts 185°
2026-04-25 18:11 51.27367 4.81315 10520 ft 269 kts 184°
2026-04-25 18:12 51.25501 4.81179 10216 ft 267 kts 184°
2026-04-25 18:12 51.23647 4.81044 9786 ft 265 kts 184°
2026-04-25 18:12 51.21830 4.80907 9349 ft 264 kts 184°
2026-04-25 18:12 51.19999 4.80768 8918 ft 262 kts 184°
2026-04-25 18:13 51.18179 4.80630 8490 ft 261 kts 184°
2026-04-25 18:13 51.16368 4.80495 8078 ft 259 kts 184°
2026-04-25 18:13 51.14572 4.80364 7671 ft 257 kts 184°
2026-04-25 18:14 51.11017 4.80104 6871 ft 254 kts 184°
2026-04-25 18:14 51.09256 4.79975 6462 ft 253 kts 184°
2026-04-25 18:14 51.07524 4.79848 6060 ft 251 kts 184°
2026-04-25 18:14 51.05782 4.79721 5650 ft 249 kts 184°
2026-04-25 18:15 51.04051 4.79591 5245 ft 247 kts 183°
2026-04-25 18:15 51.02334 4.79464 4851 ft 246 kts 183°
2026-04-25 18:15 51.00632 4.79342 4435 ft 244 kts 183°
2026-04-25 18:15 50.98944 4.79212 4020 ft 243 kts 186°
2026-04-25 18:16 50.97329 4.78504 3664 ft 237 kts 208°
2026-04-25 18:16 50.96019 4.77023 3432 ft 227 kts 228°
2026-04-25 18:16 50.94578 4.72791 2886 ft 220 kts 253°
2026-04-25 18:17 50.94058 4.70500 2496 ft 220 kts 252°
2026-04-25 18:17 50.93543 4.68240 2246 ft 213 kts 253°
2026-04-25 18:17 50.93047 4.66072 2012 ft 206 kts 252°
2026-04-25 18:17 50.92571 4.63996 1766 ft 192 kts 253°
2026-04-25 18:18 50.92144 4.62140 1507 ft 171 kts 253°
2026-04-25 18:18 50.91754 4.60439 1277 ft 157 kts 253°
2026-04-25 18:18 50.91394 4.58867 1070 ft 148 kts 253°
2026-04-25 18:18 50.91043 4.57339 871 ft 146 kts 253°
2026-04-25 18:19 50.90700 4.55846 680 ft 142 kts 252°
2026-04-25 18:19 50.90371 4.54415 470 ft 139 kts 255°
2026-04-25 18:19 50.90039 4.52973 267 ft 139 kts 255°
2026-04-25 18:19 50.89709 4.51545 154 ft 134 kts 252°
2026-04-25 18:20 50.89460 4.50417 155 ft 82 kts 249°
2026-04-25 18:20 50.89334 4.49850 159 ft 34 kts 268°
2026-04-25 18:20 50.89439 4.49527 153 ft 30 kts 308°
2026-04-25 18:20 50.89543 4.49310 146 ft 16 kts 307°
2026-04-25 18:21 50.89575 4.49244 145 ft 0 kts 307°
2026-04-25 18:21 50.89589 4.49213 144 ft 10 kts 307°
2026-04-25 18:21 50.89653 4.49152 144 ft 12 kts 358°
2026-04-25 18:21 50.89739 4.49187 144 ft 14 kts 16°
2026-04-25 18:22 50.89839 4.49228 144 ft 16 kts 14°
2026-04-25 18:22 50.89874 4.49241 144 ft 16 kts 14°
2026-04-25 18:22 50.90069 4.49318 144 ft 15 kts 14°
2026-04-25 18:22 50.90172 4.49361 144 ft 15 kts 14°
2026-04-25 18:23 50.90278 4.49404 144 ft 17 kts 11°
2026-04-25 18:23 50.90373 4.49335 143 ft 14 kts 327°
2026-04-25 18:23 50.90372 4.49213 144 ft 12 kts 246°
2026-04-25 18:23 50.90338 4.49095 144 ft 11 kts 244°
2026-04-25 18:24 50.90310 4.48998 144 ft 4 kts 246°
2026-04-25 18:24 50.90300 4.48959 144 ft 3 kts 246°
2026-04-25 18:24 50.90290 4.48922 144 ft 6 kts 246°
2026-04-25 18:24 50.90293 4.48870 144 ft 4 kts 317°
2026-04-25 18:25 50.90331 4.48839 144 ft 5 kts 335°
2026-04-25 18:25 50.90349 4.48825 144 ft 0 kts 335°
2026-04-25 18:25 50.90351 4.48824 144 ft 0 kts 335°